Location: Rancho Del Sol Observatory
(38.7214°N, 120.6350°W)
Time: 02:32:23
(UTC-08:00)

A-11 Canister half - Pass Details

Date: 24 January 2020
Orbit: 1517 x 1683 km, 47.2° (Epoch: 22 February)

Event Time Altitude Azimuth Distance (km) Brightness Sun altitude
Exits shadow 05:17:12 31° 304° (NW) 2,405 9.5 -22.9°
Maximum altitude 05:22:18 81° 29° (NNE) 1,543 8.9 -21.9°
Drops below altitude 10° 05:31:43 10° 116° (ESE) 3,727 12.1 -20.1°
Sets 05:34:48 0° 118° (ESE) 4,728 12.9 -19.5°
